This demonstration page uses our WeatherBlox Daily Observations layout. Learn more.

Left ArrowRight Arrow

39.51506, -84.39828

Hourly Observations for January 9, 2021

Temp ( °F °C ) Dew Point ( °F °C ) Humidity (%) Winds ( mph kmh ) Pressure ( in mb ) Visibility ( mi km ) Precip ( " mm )
12:15 am 00:15 Cloudy 31 -0.8 24 -4.5 76 76 N 9 15 30.19 1022 10 16.0934 N/A
12:35 am 00:35 Cloudy 30 -0.9 23 -4.8 75 75 N 8 13 30.19 1022 10 16.0934 N/A
12:55 am 00:55 Cloudy 30 -0.9 23 -4.8 75 75 NNE 9 15 30.19 1022 10 16.0934 N/A
1:15 am 01:15 Cloudy 30 -0.9 24 -4.7 76 76 N 8 13 30.19 1022 10 16.0934 N/A
1:35 am 01:35 Cloudy 30 -0.9 24 -4.7 76 76 NNW 7 11 30.19 1022 10 16.0934 N/A
1:55 am 01:55 Cloudy 30 -0.9 24 -4.6 76 76 NNE 8 13 30.19 1022 10 16.0934 N/A
2:15 am 02:15 Cloudy 30 -0.9 24 -4.6 76 76 N 6 9 30.2 1023 10 16.0934 N/A
2:35 am 02:35 Cloudy 30 -0.9 24 -4.5 77 77 N 8 13 30.21 1023 10 16.0934 N/A
2:55 am 02:55 Cloudy 30 -0.9 23 -4.8 75 75 N 10 17 30.21 1023 10 16.0934 N/A
3:15 am 03:15 Cloudy 30 -0.9 24 -4.7 76 76 NNE 6 9 30.21 1023 10 16.0934 N/A
3:35 am 03:35 Cloudy 30 -0.9 24 -4.5 77 77 N 5 7 30.21 1023 10 16.0934 N/A
3:55 am 03:55 Cloudy 30 -0.9 23 -4.8 75 75 N 6 9 30.21 1023 10 16.0934 N/A
4:15 am 04:15 Cloudy 30 -1 24 -4.7 76 76 N N/A 30.21 1023 10 16.0934 N/A
4:35 am 04:35 Cloudy 30 -1 23 -4.8 76 76 NE 8 13 30.21 1023 10 16.0934 N/A
4:55 am 04:55 Cloudy 30 -1.1 23 -5.2 74 74 N 6 9 30.22 1023 10 16.0934 N/A
5:15 am 05:15 Cloudy 30 -1.2 22 -5.3 74 74 N 7 11 30.22 1023 10 16.0934 N/A
5:35 am 05:35 Cloudy 30 -1.3 22 -5.6 73 73 N 6 9 30.23 1024 10 16.0934 N/A
5:55 am 05:55 Cloudy 30 -1.3 22 -5.6 73 73 N 6 9 30.23 1024 10 16.0934 N/A
6:15 am 06:15 Cloudy 29 -1.4 22 -5.6 73 73 NNW 6 9 30.24 1024 10 16.0934 N/A
6:35 am 06:35 Cloudy 30 -1.3 22 -5.5 73 73 NNW 6 9 30.25 1024 10 16.0934 N/A
6:55 am 06:55 Cloudy 30 -1.3 23 -5.2 75 75 NNE 7 11 30.26 1025 10 16.0934 N/A
7:15 am 07:15 Cloudy 29 -1.7 22 -5.8 74 74 NNE 10 17 30.27 1025 10 16.0934 N/A
7:35 am 07:35 Cloudy 29 -1.8 21 -6.1 73 73 NNE 9 15 30.27 1025 10 16.0934 N/A
7:55 am 07:55 Cloudy 29 -1.9 21 -6.1 73 73 N 6 9 30.28 1025 10 16.0934 N/A
8:15 am 08:15 Cloudy 29 -1.9 21 -6 74 74 N 7 11 30.29 1026 10 16.0934 N/A
8:35 am 08:35 Cloudy 29 -1.9 21 -6 74 74 NNE 9 15 30.29 1026 10 16.0934 N/A
8:55 am 08:55 Cloudy 28 -2.2 21 -6 75 75 N 8 13 30.3 1026 10 16.0934 N/A
9:15 am 09:15 Cloudy 28 -2.4 21 -6.3 75 75 NNE 9 15 30.31 1026 10 16.0934 N/A
9:35 am 09:35 Cloudy 28 -2.5 20 -6.6 74 74 NNE 7 11 30.31 1026 10 16.0934 N/A
9:55 am 09:55 Cloudy 28 -2.2 20 -6.5 73 73 ENE 5 7 30.32 1027 10 16.0934 N/A
10:15 am 10:15 Cloudy 28 -2 20 -6.6 71 71 N 7 11 30.32 1027 10 16.0934 N/A
10:35 am 10:35 Cloudy 28 -2.1 20 -6.7 71 71 N N/A 30.33 1027 10 16.0934 N/A
10:55 am 10:55 Cloudy 29 -1.7 20 -6.4 71 71 NNW 5 7 30.33 1027 10 16.0934 N/A
11:15 am 11:15 Mostly Cloudy 29 -1.8 20 -6.6 70 70 NNW 5 7 30.33 1027 10 16.0934 N/A
11:35 am 11:35 Cloudy 31 -0.5 21 -6.1 66 66 E 6 9 30.33 1027 10 16.0934 N/A
11:55 am 11:55 Cloudy 30 -0.9 20 -6.6 66 66 N N/A 30.32 1027 10 16.0934 N/A
12:15 pm 12:15 Cloudy 31 -0.3 21 -5.9 66 66 N 7 11 30.31 1026 10 16.0934 N/A
12:35 pm 12:35 Mostly Cloudy 31 -0.7 21 -6.3 66 66 NNW 7 11 30.31 1026 10 16.0934 N/A
12:55 pm 12:55 Cloudy 33 0.6 21 -5.9 62 62 N 8 13 30.29 1026 10 16.0934 N/A
1:15 pm 13:15 Sunny 32 -0.1 20 -6.6 62 62 N N/A 30.3 1026 10 16.0934 N/A
1:35 pm 13:35 Sunny 33 0.7 21 -6.2 60 60 NNE 6 9 30.29 1026 10 16.0934 N/A
1:55 pm 13:55 Sunny 34 1 21 -6.1 59 59 WNW 5 7 30.29 1026 10 16.0934 N/A
2:15 pm 14:15 Partly Cloudy 34 1.3 22 -5.7 60 60 N 7 11 30.29 1026 10 16.0934 N/A
2:35 pm 14:35 Sunny 35 1.5 21 -6.1 57 57 N N/A 30.3 1026 10 16.0934 N/A
2:55 pm 14:55 Sunny 35 1.4 21 -6.3 57 57 NW 6 9 30.3 1026 10 16.0934 N/A
3:15 pm 15:15 Sunny 35 1.6 21 -6.3 56 56 NW 6 9 30.3 1026 10 16.0934 N/A
3:35 pm 15:35 Sunny 35 1.8 21 -5.9 57 57 N 8 13 30.3 1026 10 16.0934 N/A
3:55 pm 15:55 Sunny 35 1.6 21 -5.9 58 58 N 6 9 30.3 1026 10 16.0934 N/A
4:15 pm 16:15 Sunny 35 1.6 22 -5.8 58 58 N N/A 30.3 1026 10 16.0934 N/A
4:35 pm 16:35 Sunny 35 1.5 22 -5.5 60 60 NNW 6 9 30.31 1026 10 16.0934 N/A
4:55 pm 16:55 Sunny 34 1 21 -5.9 60 60 N 5 7 30.31 1027 10 16.0934 N/A
5:15 pm 17:15 Sunny 33 0.6 21 -6 62 62 N N/A 30.32 1027 10 16.0934 N/A
5:35 pm 17:35 Clear 33 0.3 21 -6 63 63 NNW 5 7 30.33 1027 10 16.0934 N/A
5:55 pm 17:55 Clear 31 -0.4 22 -5.6 68 68 NNW 3 6 30.34 1027 10 16.0934 N/A
6:15 pm 18:15 Clear 30 -1.2 24 -4.7 77 77 N N/A 30.35 1028 10 16.0934 N/A
6:35 pm 18:35 Clear 28 -2 23 -4.8 81 81 WNW 3 6 30.36 1028 10 16.0934 N/A
6:55 pm 18:55 Clear 27 -2.8 23 -4.8 86 86 N N/A 30.36 1028 10 16.0934 N/A
7:15 pm 19:15 Clear 27 -2.9 22 -5.3 84 84 N N/A 30.36 1028 10 16.0934 N/A
7:35 pm 19:35 Clear 26 -3.6 22 -5.6 86 86 N N/A 30.38 1029 10 16.0934 N/A
7:55 pm 19:55 Clear 25 -3.8 21 -5.9 86 86 N N/A 30.38 1029 10 16.0934 N/A
8:15 pm 20:15 Clear 26 -3.5 23 -5.1 89 89 N N/A 30.38 1029 10 16.0934 N/A
8:35 pm 20:35 Clear 24 -4.7 21 -6.2 89 89 N N/A 30.38 1029 10 16.0934 N/A
8:55 pm 20:55 Clear 25 -4.1 22 -5.5 90 90 N N/A 30.38 1029 10 16.0934 N/A
9:15 pm 21:15 Clear 24 -4.6 22 -5.8 91 91 N N/A 30.38 1029 10 16.0934 N/A
9:35 pm 21:35 Clear 23 -4.9 21 -6 92 92 N N/A 30.38 1029 10 16.0934 N/A
9:55 pm 21:55 Clear 24 -4.5 22 -5.4 94 94 N N/A 30.37 1028 10 16.0934 N/A
10:15 pm 22:15 Clear 23 -4.8 22 -5.5 95 95 N N/A 30.38 1029 10 16.0934 N/A
10:35 pm 22:35 Clear 23 -5 22 -5.6 96 96 N N/A 30.37 1028 10 16.0934 N/A
10:55 pm 22:55 Clear 22 -5.3 21 -6 95 95 N N/A 30.38 1029 10 16.0934 N/A
11:15 pm 23:15 Clear 22 -5.4 21 -5.9 96 96 N N/A 30.38 1029 7 11.26538 N/A
11:35 pm 23:35 Clear 22 -5.8 21 -6.2 97 97 N N/A 30.37 1029 7 11.26538 N/A
11:55 pm 23:55 Clear 21 -5.9 20 -6.5 96 96 N N/A 30.37 1029 7 11.26538 N/A

Powered by AerisWeather